Location: *
(51.2167°N, 10.0667°E)
Time: 11:26:43
(UTC+00:00)

Cosmos 2251 Rocket - Pass Details

Date: 12 December 2019
Orbit: 765 x 791 km, 74.0° (Epoch: 19 January)

Event Time Altitude Azimuth Distance (km) Brightness Sun altitude
Rises 16:18:07 0° 196° (SSW) 3,252 7.4 -9.7°
Reaches altitude 10° 16:20:30 10° 194° (SSW) 2,325 6.6 -10.0°
Maximum altitude 16:25:45 73° 111° (ESE) 813 3.5 -10.8°
Drops below altitude 10° 16:31:01 10° 28° (NNE) 2,325 5.5 -11.5°
Enters shadow 16:31:31 - 27° (NNE) 2,521 5.7 -11.6°
